www.pogodaiklimat.ru
ПОГОДА в Виерема Каараккала
Время
(UTC), дата
22 9.10
23 9.10
00 10.10
01 10.10
02 10.10
03 10.10
04 10.10
05 10.10
06 10.10
07 10.10
08 10.10
09 10.10
10 10.10
11 10.10
12 10.10
13 10.10
14 10.10
15 10.10
16 10.10
17 10.10
18 10.10
19 10.10
20 10.10
21 10.10
22 10.10
23 10.10
00 11.10
01 11.10
02 11.10
03 11.10
04 11.10
05 11.10
06 11.10
07 11.10
08 11.10
09 11.10
10 11.10
11 11.10
12 11.10
13 11.10
14 11.10
15 11.10
16 11.10
17 11.10
18 11.10
19 11.10
20 11.10
21 11.10
22 11.10
23 11.10
00 12.10
01 12.10
02 12.10
03 12.10
04 12.10
05 12.10
06 12.10
07 12.10
08 12.10
09 12.10
10 12.10
11 12.10
12 12.10
13 12.10
14 12.10
15 12.10
16 12.10
17 12.10
18 12.10
19 12.10
20 12.10
21 12.10
22 12.10
23 12.10
00 13.10
01 13.10
02 13.10
03 13.10
04 13.10
05 13.10
06 13.10
07 13.10
08 13.10
09 13.10
10 13.10
11 13.10
12 13.10
13 13.10
14 13.10
15 13.10
16 13.10
17 13.10
18 13.10
19 13.10
20 13.10
21 13.10
22 13.10
23 13.10
00 14.10
01 14.10
02 14.10
03 14.10
04 14.10
05 14.10
06 14.10
07 14.10
08 14.10
09 14.10
10 14.10
11 14.10
12 14.10
13 14.10
14 14.10
15 14.10
16 14.10
17 14.10
18 14.10
19 14.10
20 14.10
21 14.10
22 14.10
23 14.10
00 15.10
01 15.10
02 15.10
03 15.10
04 15.10
05 15.10
06 15.10
07 15.10
08 15.10
09 15.10
10 15.10
11 15.10
12 15.10
13 15.10
14 15.10
15 15.10
16 15.10
17 15.10
18 15.10
19 15.10
20 15.10
21 15.10
22 15.10
23 15.10
00 16.10
01 16.10
02 16.10
03 16.10
04 16.10
05 16.10
06 16.10
07 16.10
08 16.10
09 16.10
10 16.10
11 16.10
12 16.10
13 16.10
14 16.10
15 16.10
17 16.10
18 16.10
19 16.10
20 16.10
21 16.10
Ветер
(напр.,м/с)
Видим. Явления Облачность Т
(С)
Тd
(С)
f
(%)
Тe
(С)
Тes
(С)
Комфортность P
(гПа)
Po
(гПа)
Тmin
(С)
Tmax
(С)
R
(мм)
R24
(мм)
S
(см)
З 3 3500 м слаб. снег 10/10 <50 м
[]
0.0 -0.3 98 -5 -5 холодно 1000.6 975.1 0.5
ЮЗ 4 3400 м слаб. снег 10/10 <50 м
[]
0.0 -0.3 98 -6 -6 холодно 1000.7 975.2 0.1
ЮЗ 3-5
{6}
10 км слаб. снег 10/10 50 м
[]
-0.1 -0.4 98 -5 -5 холодно 1000.8 975.3 0.1
ЮЗ 3-5
{5}
7000 м слаб. ливневой снег 10/10 300 м
[]
-0.1 -0.4 98 -5 -5 холодно 1000.8 975.2
ЮЗ 3-5
{5}
19 км ливневой дождь 9/9 200 м
[]
-0.5 -0.8 98 -6 -6 холодно 1000.8 975.3
ЮЗ 3-5
{5}
28 км в посл. час снег 10/0 600 м
[]
-0.6 -0.9 98 -6 -6 холодно 1000.9 975.3
ЮЗ 3-4
{5}
8000 м слаб. ливневой снег 10/0 600 м
[]
-0.7 -1.1 97 -6 -6 холодно 1001.0 975.5
ЮЗ 3-4
{5}
6000 м слаб. снег 10/10 600 м
[]
-0.8 -1.1 98 -6 -6 холодно 1001.2 975.6 0.1
ЮЗ 3-5
{5}
40 км в посл. час зёрна 9/9 600 м
[]
-0.7 -1.1 97 -6 -6 холодно 1001.4 975.8 -0.8 +0.4 2
ЮЗ 3-4
{4}
30 км 6/6 2000 м
[]
-0.4 -0.8 97 -5 -5 холодно 1001.4 975.9
ЮЗ 2-4
{5}
30 км 9/6 1500 м
[]
0.0 -0.6 96 -4 -4 прохладно 1001.3 975.8
ЮЗ 2-4
{4}
45 км 6/6 300 м
[]
+1.4 +0.3 92 -2 -1 по сезону 1001.2 975.8
З 3-5
{6}
45 км 4/4 300 м
[]
+2.4 +0.5 87 -2 -1 по сезону 1001.2 975.9
ЮЗ 3-5
{5}
40 км 9/1 300 м
[]
+3.2 +0.6 83 -1 0 по сезону 1001.2 975.9
ЮЗ 2-4
{6}
50 км 9/9 300 м
[]
+2.9 +0.1 82 -0 0 по сезону 1001.1 975.8
Ю 2-4
{4}
45 км 9/1 300 м
[]
+2.6 +0.1 84 -1 -0 по сезону 1000.9 975.6
ЮЗ 2-4
{5}
50 км 9/1 1000 м
[]
+2.5 0.0 84 -1 -1 по сезону 1000.9 975.6
Ю 2-3
{3}
50 км 10/0
[]
+1.9 +0.2 88 -1 -1 по сезону 1000.8 975.4
ЮЗ 2-3
{3}
50 км 10/1 1500 м
[]
+1.5 -0.9 84 -2 -2 по сезону 1000.9 975.6
Ю 2-4
{4}
50 км 10/0
[]
+1.1 -0.9 86 -2 -2 по сезону 1000.6 975.2
Ю 3-4
{5}
50 км 10/0
[]
+0.9 -0.5 90 -4 -4 прохладно 1000.5 975.0 -0.7 +3.3
Ю 3-5
{5}
45 км 10/0
[]
+0.7 -0.1 94 -4 -4 прохладно 1000.1 974.7
ЮВ 2-3
{5}
40 км 10/0
[]
+0.6 -0.1 95 -3 -3 прохладно 999.9 974.4
Ю 3-5
{5}
45 км 9/0
[]
+0.5 0.0 96 -4 -4 прохладно 999.4 974.0
Ю 3-5
{6}
40 км 9/9 2000 м
[]
+0.6 +0.1 96 -4 -4 прохладно 999.3 973.9
ЮВ 3-5
{6}
8000 м дымка 10/0 50 м
[]
+0.6 +0.3 98 -4 -4 прохладно 998.9 973.5
ЮВ 3-4
{5}
1000 м дымка 10/0 50 м
[]
+1.0 +0.7 98 -4 -4 прохладно 998.4 973.1
ЮВ 3-6
{6}
500 м туман ?/? +1.6 +1.3 98 -3 -3 прохладно 997.7 972.4
Ю 3-5
{6}
200 м туман ?/? +2.2 +1.9 98 -2 -2 по сезону 997.4 972.2
Ю 3-6
{7}
1400 м слаб. дождь ?/? +3.0 +2.7 98 -1 -1 по сезону 996.8 971.7 0.5
Ю 3-6
{6}
2500 м слаб. ливневой дождь 10/0 50 м
[]
+3.6 +3.3 98 -1 -1 по сезону 996.4 971.3 0.2
Ю 4-6
{7}
900 м слаб. ливневой дождь ?/? +4.0 +3.7 98 -1 -1 по сезону 996.0 971.0 0.1
Ю 4-6
{7}
1200 м слаб. дождь ?/? +4.5 +4.2 98 0 0 по сезону 995.8 970.8 +0.3 +4.5 0.8 <0.5
Ю 3-5
{7}
300 м туман ?/? +5.0 +4.7 98 +1 +1 по сезону 995.5 970.6 0.1
ЮЗ 3-5
{5}
1500 м морось ?/? +5.7 +5.4 98 +2 +2 по сезону 995.4 970.6 0.6
ЮЗ 4-6
{7}
2600 м слаб. дождь 10/10 <50 м
[]
+6.2 +5.9 98 +2 +2 по сезону 995.4 970.6 0.2
ЮЗ 3-6
{6}
45 км в посл. час морось 9/9 50 м
[]
+6.7 +6.4 98 +3 +4 по сезону 995.4 970.7 0.3
Ю 3-5
{6}
30 км 9/9 50 м
[]
+7.0 +6.8 99 +4 +4 по сезону 995.2 970.5
Ю 4-7
{7}
5000 м слаб. дождь 10/10 50 м
[]
+7.0 +6.9 99 +3 +3 по сезону 994.9 970.2 0.2
ЮЗ 4-6
{8}
11 км слаб. ливневой дождь 9/9 50 м
[]
+7.1 +6.9 99 +3 +3 по сезону 994.7 970.0 0.3
ЮЗ 5-8
{8}
15 км слаб. ливневой дождь 9/9 100 м
[]
+7.0 +6.7 98 +3 +3 по сезону 994.6 969.8 0.5
Ю 3-5
{6}
30 км 10/10 300 м
[]
+6.7 +6.5 99 +3 +3 по сезону 994.4 969.7
ЮЗ 3-6
{6}
5000 м сильн. дождь 9/9 50 м
[]
+6.6 +6.5 99 +3 +3 по сезону 994.3 969.6 1
ЮЗ 3-5
{6}
5000 м дождь 9/9 50 м
[]
+6.5 +6.3 99 +3 +3 по сезону 994.1 969.3 1
Ю 2-4
{5}
5000 м ливневой дождь 9/9 200 м
[]
+6.1 +5.9 99 +3 +3 по сезону 993.8 969.0 +4.4 +7.2 0.6
ЮЗ 3-5
{5}
4900 м слаб. дождь со снегом 10/10 50 м
[]
+6.4 +6.3 99 +3 +3 по сезону 993.5 968.8 2
Ю 4-7
{7}
8000 м сильн. морось 10/10 50 м
[]
+6.5 +6.4 99 +3 +3 по сезону 993.2 968.4 1
Ю 3-6
{6}
19 км в посл. час дождь 10/10 50 м
[]
+6.4 +6.3 99 +3 +3 по сезону 993.0 968.2 0.2
Ю 4-6
{6}
18 км 10/10 50 м
[]
+6.4 +6.2 99 +2 +2 по сезону 992.7 968.0
Ю 3-6
{6}
9000 м слаб. ливневой дождь 10/10 <50 м
[]
+6.4 +6.2 99 +3 +3 по сезону 992.5 967.8
Ю 3-5
{6}
2900 м слаб. ливневой дождь 9/9 <50 м
[]
+6.4 +6.3 99 +3 +3 по сезону 992.2 967.4 0.1
Ю 3-5
{6}
3600 м в посл. час дождь 10/10 <50 м
[]
+6.4 +6.3 99 +3 +3 по сезону 991.8 967.1 0.3
Ю 3-5
{6}
17 км 10/10 <50 м
[]
+6.4 +6.2 99 +3 +3 по сезону 991.3 966.6
Ю 4-6
{6}
18 км 9/9 <50 м
[]
+6.2 +6.0 99 +2 +2 по сезону 990.9 966.2
Ю 4-6
{6}
15 км 9/9 <50 м
[]
+5.9 +5.7 99 +2 +2 по сезону 990.4 965.7
Ю 3-4
{5}
4000 м сильн. морось 9/9 <50 м
[]
+5.7 +5.5 99 +2 +2 по сезону 990.1 965.3 0.1
ЮВ 2-3
{4}
10 км в посл. час морось 10/10 50 м
[]
+5.8 +5.7 99 +3 +3 по сезону 989.8 965.1 +5.7 +6.5 0.1 <0.5
ЮВ 2-2
{4}
4300 м слаб. дождь 9/9 50 м
[]
+5.9 +5.7 99 +3 +3 по сезону 989.7 965.0 0.2
30 км в посл. час морось 9/9 50 м
[]
+6.4 +6.2 99 989.3 964.7 0.1
СВ 1-2
{3}
30 км 6/6 1000 м
[]
+6.6 +6.3 98 +5 +6 тепло 988.9 964.3
С 2-3
{3}
30 км 10/10 100 м
[]
+6.9 +6.4 97 +4 +4 по сезону 988.8 964.2
С 2-3
{3}
40 км 10/10 1000 м
[]
+7.0 +6.3 95 +5 +5 тепло 988.8 964.3
С 3-5
{5}
50 км в посл. час осадки 9/9 100 м
[]
+5.9 +5.7 99 +2 +2 по сезону 989.4 964.7
С 3-5
{6}
50 км 10/10 50 м
[]
+5.1 +4.8 98 +1 +1 по сезону 990.1 965.3
С 3-5
{6}
50 км 10/0 100 м
[]
+4.7 +4.3 97 +1 +1 по сезону 990.6 965.7
СЗ 4-6
{7}
23 км 10/10 100 м
[]
+3.9 +3.7 99 -1 -1 по сезону 991.1 966.2
СЗ 4-6
{6}
11 км 10/10 50 м
[]
+3.2 +3.0 99 -2 -2 по сезону 991.8 966.9
СЗ 4-7
{7}
9000 м дымка 10/10 50 м
[]
+2.2 +2.0 99 -3 -3 прохладно 992.6 967.5
СЗ 5-7
{7}
5000 м дымка 10/0 50 м
[]
+1.5 +1.3 99 -4 -4 прохладно 993.2 968.0 +1.5 +7.2
СЗ 4-7
{7}
1000 м осадки ?/? +1.0 +0.7 98 -4 -4 прохладно 994.1 968.8
СЗ 4-5
{7}
200 м туман ?/? +0.5 +0.3 99 -5 -5 холодно 994.7 969.4
З 3-5
{6}
500 м туман ?/? +0.4 +0.2 99 -4 -4 прохладно 995.2 969.8
З 3-4
{5}
5000 м в посл. час туман 10/10 <50 м
[]
+0.4 +0.2 99 -4 -4 прохладно 995.7 970.3
СЗ 3-5
{5}
24 км 10/10 50 м
[]
+0.4 +0.1 98 -4 -4 прохладно 996.1 970.8
СЗ 2-4
{5}
16 км 10/10 50 м
[]
+0.2 0.0 99 -4 -4 прохладно 996.4 971.0
СЗ 1-2
{4}
3300 м морось 10/10 <50 м
[]
+0.1 -0.2 98 -2 -2 по сезону 996.8 971.4
З 1-2
{3}
10 км в посл. час дождь 10/10 300 м
[]
0.0 -0.3 98 -2 -2 по сезону 997.1 971.7 0.1
СЗ 2-3
{4}
45 км ливневой дождь 9/9 50 м
[]
-0.2 -0.5 98 -4 -4 прохладно 997.6 972.1
З 1-2
{2}
4400 м слаб. ливневой снег 10/10 50 м
[]
-0.3 -0.6 98 -3 -3 прохладно 997.7 972.2
З 1-2
{3}
35 км в посл. час снег 9/9 50 м
[]
-0.4 -0.7 98 -3 -3 прохладно 998.2 972.8
С 2-3
{3}
45 км 9/9 100 м
[]
-0.5 -0.7 99 -4 -4 прохладно 998.5 973.0 -0.5 +1.5 <0.5
СЗ 2-4
{4}
45 км 9/9 200 м
[]
-0.3 -0.6 98 -4 -4 прохладно 999.2 973.8
СЗ 3-4
{4}
11 км 10/10 100 м
[]
0.0 -0.4 97 -5 -5 холодно 999.8 974.4
СЗ 3-4
{5}
16 км осадки 10/10 100 м
[]
+0.3 -0.2 96 -5 -5 холодно 1000.3 974.8
СЗ 2-4
{5}
4300 м слаб. снег 9/9 50 м
[]
+0.6 +0.2 97 -3 -3 прохладно 1001.0 975.5 0.1
СЗ 3-4
{5}
11 км снежные зёрна 10/10 100 м
[]
+0.8 +0.3 96 -4 -4 прохладно 1001.6 976.1 0.1
З 3-4
{5}
17 км ливневой дождь 10/10 100 м
[]
+1.0 +0.5 96 -4 -4 прохладно 1002.5 977.0
З 4-6
{6}
40 км в посл. час снег 9/9 50 м
[]
+1.3 +0.8 96 -4 -4 прохладно 1003.1 977.7 0.1
З 3-5
{6}
35 км слаб. ливневой дождь 10/10 100 м
[]
+0.9 +0.5 97 -4 -4 прохладно 1003.9 978.4
СЗ 3-5
{6}
40 км 9/9 100 м
[]
+0.6 +0.1 96 -4 -4 прохладно 1004.6 979.1
З 3-4
{6}
30 км ливневой дождь 4/4 100 м
[]
0.0 -0.4 97 -5 -5 холодно 1005.5 979.9
З 2-4
{5}
17 км 10/10 200 м
[]
-0.2 -0.4 99 -4 -4 прохладно 1006.2 980.5
З 2-5
{5}
12 км осадки 9/9 <50 м
[]
0.0 -0.2 99 -4 -4 прохладно 1006.6 981.0 -0.4 +1.5
З 2-3
{5}
1000 м слаб. дождь ?/? 0.0 -0.2 99 -4 -4 прохладно 1007.3 981.7 0.1
З 2-4
{4}
1600 м снежные зёрна 10/10 50 м
[]
+0.1 -0.2 98 -4 -4 прохладно 1008.0 982.3 0.2
З 3-5
{5}
24 км 9/9 100 м
[]
+0.2 0.0 99 -5 -5 холодно 1008.5 982.9
ЮЗ 2-4
{4}
11 км слаб. ливневой снег 10/10 <50 м
[]
+0.2 0.0 99 -4 -4 прохладно 1008.9 983.2
З 3-4
{5}
12 км слаб. ливневой снег 9/9 50 м
[]
+0.3 +0.1 99 -5 -5 холодно 1009.2 983.5 0.1
З 2-4
{5}
15 км ливневой дождь 10/10 50 м
[]
+0.3 +0.1 99 -4 -4 прохладно 1009.3 983.6
З 2-4
{4}
19 км 9/9 100 м
[]
+0.2 0.0 99 -4 -4 прохладно 1009.4 983.7
З 3-4
{5}
12 км ливневой дождь 10/10 50 м
[]
+0.2 0.0 99 -5 -5 холодно 1009.4 983.7
З 2-4
{5}
6000 м слаб. ливневой снег 10/10 <50 м
[]
+0.2 0.0 99 -4 -4 прохладно 1009.3 983.6
ЮЗ 2-3
{6}
29 км ливневой дождь 10/10 100 м
[]
0.0 -0.2 99 -4 -4 прохладно 1009.5 983.8 0.1
ЮЗ 2-3
{3}
27 км слаб. ливневой снег 10/10 100 м
[]
0.0 -0.3 98 -4 -4 прохладно 1009.7 984.0
ЮЗ 2-3
{4}
21 км слаб. ливневой снег 9/9 600 м
[]
0.0 -0.2 99 -4 -4 прохладно 1009.7 984.0 -0.1 +0.4 <0.5
З 2-3
{4}
45 км в посл. час осадки 10/0 600 м
[]
+0.3 0.0 98 -4 -3 прохладно 1009.6 983.9
ЮЗ 2-4
{4}
50 км 10/0 600 м
[]
+0.8 0.0 94 -3 -2 прохладно 1009.9 984.3
З 2-3
{4}
50 км 10/0 600 м
[]
+1.1 -0.2 91 -2 -2 по сезону 1009.9 984.3
ЮЗ 2-3
{3}
50 км 10/0 600 м
[]
+1.4 -0.7 86 -2 -1 по сезону 1010.0 984.4
ЮЗ 3-5
{5}
50 км в посл. час осадки 10/10 600 м
[]
+1.6 -0.7 85 -3 -3 прохладно 1009.9 984.3
ЮЗ 2-4
{4}
50 км 10/10 600 м
[]
+2.1 -0.6 82 -1 -1 по сезону 1009.7 984.2
СЗ 2-3
{5}
9000 м слаб. ливневой снег 9/9 100 м
[]
+0.6 +0.1 96 -3 -3 прохладно 1009.9 984.3 0.7
З 1-2
{3}
50 км в посл. час снег 4/0 600 м
[]
+0.7 -0.3 93 -1 -1 по сезону 1010.1 984.4
ЮЗ 1-1
{1}
45 км 4/0 600 м
[]
-0.2 -0.7 96 -2 -2 по сезону 1010.6 984.8
З 2-2
{2}
50 км 10/10 600 м
[]
+0.1 -0.4 96 -4 -4 прохладно 1011.2 985.4
З 1 50 км 9/9 600 м
[]
+0.3 -0.3 96 -2 -2 по сезону 1011.7 985.9
З 2-3
{3}
50 км 10/10 300 м
[]
0.0 -0.4 97 -4 -4 прохладно 1012.2 986.4 -0.4 +3.0
З 2-3
{3}
35 км 10/0 600 м
[]
-0.1 -0.4 98 -4 -4 прохладно 1012.8 987.0
З 3-4
{4}
18 км осадки 10/10 100 м
[]
-0.1 -0.4 98 -5 -5 холодно 1013.5 987.6
З 2-3
{4}
35 км в посл. час осадки 10/10 300 м
[]
-0.3 -0.7 97 -4 -4 прохладно 1014.0 988.1
З 2-3
{5}
3700 м слаб. снег 10/10 100 м
[]
-0.2 -0.5 98 -4 -4 прохладно 1014.4 988.6
З 3-5
{5}
12 км в посл. час снег 10/0 50 м
[]
-0.1 -0.3 99 -5 -5 холодно 1015.0 989.1
З 3-4
{5}
10 км 10/0 50 м
[]
0.0 -0.2 99 -5 -5 холодно 1015.7 989.8
З 2-4
{5}
11 км 10/10 50 м
[]
+0.1 -0.1 99 -4 -4 прохладно 1016.5 990.6
З 3-5
{6}
14 км 10/10 50 м
[]
+0.2 0.0 99 -5 -5 холодно 1017.2 991.3
З 2-4
{5}
16 км 10/10 50 м
[]
+0.1 -0.1 99 -4 -4 прохладно 1017.8 991.8
З 2-3
{4}
8000 м дымка 4/4 50 м
[]
-0.7 -0.9 99 -5 -5 холодно 1018.3 992.3
З 2-4
{4}
22 км ясно -1.2 -1.4 99 -5 -5 холодно 1018.9 992.8
З 2-3
{4}
28 км ясно -1.2 -1.5 98 -5 -5 холодно 1019.7 993.6 -1.4 +0.3 <0.5
З 2-3
{4}
40 км ясно -0.5 -1.0 96 -4 -4 прохладно 1020.2 994.2
З 2-3
{4}
45 км ясно +0.7 -0.6 91 -3 -2 прохладно 1020.9 994.9
З 2-5
{5}
45 км ясно +1.9 -0.6 83 -1 0 по сезону 1021.3 995.5
З 2-4
{4}
50 км ясно +2.9 -0.7 77 0 +2 по сезону 1021.6 995.8
З 3-4
{4}
50 км 1/0 300 м
[]
+3.3 -0.5 76 -0 +1 по сезону 1021.9 996.1
ЮЗ 2-4
{5}
45 км 1/0 300 м
[]
+3.8 -1.1 70 +1 +2 по сезону 1021.8 996.1
ЮЗ 3-5
{5}
45 км 1/0 300 м
[]
+3.6 -0.9 72 0 0 по сезону 1022.1 996.4
Ю 2-4
{4}
50 км ясно +2.8 -0.9 77 -0 0 по сезону 1022.2 996.4
Ю 3-4
{4}
50 км ясно +1.2 -0.7 87 -3 -3 прохладно 1022.5 996.6
Ю 3-4
{4}
50 км ясно +0.3 -1.8 86 -4 -4 прохладно 1022.5 996.5
Ю 3-5
{5}
50 км 1/0 1500 м
[]
+0.2 -1.5 88 -4 -4 прохладно 1022.4 996.3
Ю 3-5
{5}
50 км 4/0 2000 м
[]
+0.2 -1.4 89 -5 -5 холодно 1022.4 996.4 -1.2 +3.9
Ю 4-6
{6}
50 км 10/0 1500 м
[]
+0.1 -1.0 92 -5 -5 холодно 1022.5 996.5
Ю 4-6
{6}
40 км 10/0 2000 м
[]
-0.1 -0.8 95 -6 -6 холодно 1022.6 996.5
Ю 3-5
{7}
30 км 10/0 2000 м
[]
-0.4 -0.8 97 -5 -5 холодно 1022.5 996.4
Ю 3-6
{6}
10 км 10/6 50 м
[]
-0.5 -0.8 98 -6 -6 холодно 1022.7 996.6
Ю 3-6
{6}
3700 м ливневой дождь 10/0 50 м
[]
-0.4 -0.7 98 -5 -5 холодно 1022.3 996.3
Ю 4-6
{6}
4900 м ливневой дождь 9/0 <50 м
[]
-0.2 -0.4 99 -6 -6 холодно 1022.0 995.9
Ю 4-6
{7}
5000 м слаб. дождь 9/9 <50 м
[]
+0.2 -0.1 98 -5 -5 холодно 1021.7 995.7 0.1
Ю 4-7
{7}
4400 м слаб. дождь 10/10 <50 м
[]
+0.2 0.0 99 -5 -5 холодно 1021.7 995.6 0.1
Ю 3-5
{6}
12 км слаб. морось 9/9 <50 м
[]
+0.2 -0.1 98 -5 -5 холодно 1021.4 995.4 0.1
Ю 3-6
{6}
20 км слаб. ливневой снег 10/0 1500 м
[]
+0.2 0.0 99 -5 -5 холодно 1020.9 994.9
Ю 3-4
{5}
30 км в посл. час снег 10/10 1000 м
[]
+0.2 -0.1 98 -5 -5 холодно 1020.6 994.6
ЮВ 3-4
{4}
35 км 10/0 1000 м
[]
+0.3 -0.1 97 -5 -5 холодно 1020.6 994.6 -0.6 +0.3 <0.5
ЮВ 3-4
{4}
21 км 10/0 1000 м
[]
+0.4 +0.1 98 -4 -4 прохладно 1020.6 994.7
ЮВ 2-3
{4}
15 км 10/0 1000 м
[]
+0.5 +0.2 98 -3 -3 прохладно 1020.6 994.6
ЮВ 2-2
{3}
12 км 10/0 1000 м
[]
+0.8 +0.5 98 -3 -2 прохладно 1020.4 994.5
ЮВ 2-3
{3}
15 км 10/10 50 м
[]
+1.8 +1.5 98 -2 -2 по сезону 1020.0 994.2
ЮВ 2-3
{3}
19 км 10/10 50 м
[]
+2.1 +1.6 96 -1 -1 по сезону 1019.7 994.0
ЮВ 2-4
{4}
15 км 10/10 50 м
[]
+2.1 +1.6 96 -1 -1 по сезону 1019.5 993.7
ЮВ 2-3
{4}
30 км 9/9 100 м
[]
+2.4 +1.3 92 -1 -1 по сезону 1018.8 993.0
В 2-2
{4}
20 км 4/4 100 м
[]
+1.6 +0.9 95 -2 -2 по сезону 1018.6 992.8
В 2-3
{3}
11 км ясно +0.8 +0.5 98 -3 -3 прохладно 1018.6 992.7
В 3-4
{5}
27 км 4/4 300 м
[]
+0.5 0.0 96 -4 -4 прохладно 1018.4 992.4
В 3-5
{5}
40 км 1/0 300 м
[]
-0.2 -0.9 95 -5 -5 холодно 1018.3 992.4 -0.3 +2.8
В 3-4
{5}
30 км ясно -0.7 -1.1 97 -6 -6 холодно 1018.5 992.5
В 3-5
{5}
6000 м дымка 6/0 <50 м
[]
-0.9 -1.2 98 -6 -6 холодно 1018.6 992.6
СВ 2-3
{5}
10 км в посл. час туман 4/4 <50 м
[]
-1.8 -2.0 99 -6 -6 холодно 1018.6 992.5
Местоположение метеостанции Виерема Каараккала (Финляндия): широта 63.84 долгота 27.22 высота над уровнем моря 207 м.
В архиве по умолчанию представлена погода в Виерема Каараккала за последнюю неделю. Архивные данные за месяц целиком и за предыдущие месяцы, начиная с января 2011 года, Вы можете получить, выбрав интересующий диапазон дат из раскрывающегося списка и нажав кнопку "Найти!".
*Определитесь, кто Вы:
Внимание! Время в таблицах - всемирное. Для получения местного времени необходимо прибавить поправку, которая равна 1 ч.
Смотрите также архив погоды в соседних городах и на ближайших метеорологических станциях:
Партнеры нашего сайта:      
Пояснения к столбцам:
  • Ветер - указаны скорость ветра в м/с - средняя за 10 мин, порывы в срок и между сроками (в фигурных скобках) и направление, откуда дует ветер: С - северный,
  • СВ - северо-восточный, В - восточный, ЮВ - юго-восточный, Ю - южный, ЮЗ - юго-западный, З - западный, СЗ - северо-западный.
  • Видимость - горизонтальная дальность видимости в метрах или километрах. При видимости от 1 до 10 км при отсутствии осадков обычно наблюдается дымка, при ухудшении видимости до 1 км и менее - туман. В сухую погоду видимость может ухудшаться дымом, пылью или мглою.
  • Явления - указаны атмосферные явления, наблюдавшиеся в срок или в последний час перед сроком; фигурными скобками обозначены явления, наблюдавшиеся между сроками (за 1-3 часа до срока); квадратными скобками обозначены град или гололедные отложения с указанием их диаметра в мм.
  • Облачность - указаны через наклонную черту общая и нижняя облачность в баллах и высота нижней границы облаков в метрах; квадратными скобками обозначены формы облаков: Ci - перистые, Cs - перисто-слоистые, Cc - перисто-кучевые, Ac - высококучевые, As - высокослоистые, Sc - слоисто-кучевые, Ns - слоисто-дождевые, Cu - кучевые, Cb - кучево-дождевые. Подробнее классификацию облаков см. в Атласе облаков (PDF).
  • T - Температура воздуха - температура, измеренная на высоте 2 м над землей.
  • Td - Температура точки росы - температура, при понижении до которой содержащийся в воздухе водяной пар достигнет насыщения.
  • f - Относительная влажность воздуха - влажноcть воздуха, измеренная на высоте 2 м над землей.
  • Te - Эффективная температура - температура, которую ощущает одетый по сезону человек в тени. Характеристика душности погоды. При расчете учитывается влияние влажности воздуха и скорости ветра на теплоощущения человека.
  • Tes - Эффективная температура на солнце - температура, которую ощущает человек, с поправкой на солнечный нагрев. Характеристика знойности погоды. Зависит от высоты солнца над горизонтом, облачности и скорости ветра. Ночью, в пасмурную погоду, а также при ветре 12 м/с и более поправка равна нулю.
  • P - Атмосферное давление - приведенное к уровню моря атмосферное давление.
  • Po - Атмосферное давление - измеренное на уровне метеостанции атмосферное давление.
  • Tmin - Минимальная температура - минимум температуры воздуха на высоте 2 м над землей.
  • Tmax - Максимальная температура - максимум температуры воздуха на высоте 2 м над землей.
  • R - Количество осадков - Количество выпавших осадков за период времени, мм. При наведении курсора мыши на число - период времени, за который выпало указанное количество осадков.
  • R24 - Количество осадков - Количество выпавших осадков за 24 часа, мм.
  • S - Снежный покров - Высота снежного покрова, см. При наведении курсора мыши на число - состояние снежного покрова и степень покрытия местности в баллах.